Regional Weather Roundup
Issued by NWS

Home | Current Version | Previous Version | Text Only | Print | Product List | Glossary Off
Versions: 1 2 3 4 5 6 7 8 9 10 11 12 13 14 15 16 17 18 19 20 21 22 23 24 25 26 27 28 29 30 31 32 33 34 35 36 37 38 39 40 41 42 43 44 45 46 47 48 49 50

000
ASUS43 KDTX 272010
RWRMI
MICHIGAN HOURLY REGIONAL WEATHER ROUNDUP
NATIONAL WEATHER SERVICE DETROIT/PONTIAC MI
400 PM EDT WED MAY 27 2015

NOTE: "FAIR" INDICATES FEW OR NO CLOUDS BELOW 12,000 FEET WITH NO
SIGNIFICANT WEATHER AND/OR OBSTRUCTION TO VISIBILITY.

MIZ047>049-052>055-059>063-066>070-074>076-081>083-272100-
SOUTHEAST LOWER MICHIGAN

CITY           SKY/WX    TMP DP  RH WIND       PRES   REMARKS
ADRIAN         CLOUDY    70  62  76 W10G18    30.00R
ALMA           PTSUNNY   71  61  70 W15       29.95R
ANN ARBOR      CLOUDY    75  61  61 SW14      29.97R
BAD AXE        MOSUNNY   78  53  41 W25G35    29.89S
CARO           MOSUNNY   79  55  44 W18G30    29.90R
DETROIT CITY   CLOUDY    75  63  66 SW14G24   29.96R
DETROIT        CLOUDY    76  64  66 S17G25    29.97S
FLINT          PTSUNNY   76  62  62 SW10G21   29.93S
GROSSE ILE     CLOUDY    72  64  78 SW12G17   29.97R
HILLSDALE      LGT RAIN  70  67  89 W6        30.01R
HOWELL         CLOUDY    71  64  79 SW13      29.96S

CITY           SKY/WX    TMP DP  RH WIND       PRES   REMARKS
JACKSON        LGT RAIN  65  62  90 SW10      29.99S
LAMBERTVILLE   CLOUDY    68  61  77 SW9       30.00S
LANSING        PTSUNNY   74  56  53 W21G30    29.96R
LAPEER         FAIR      71  62  72 SW9       29.94S
MASON          CLOUDY    67  62  83 SW7       29.97R
MONROE         LGT RAIN  70  64  83 SW17G24   29.97S
MT. CLEMENS    TSTM      70  61  73 W8        29.95R
PONTIAC        CLOUDY    69  64  84 SW9G20    29.96R
PORT HOPE        N/A     78  57  48 W14G24    29.86R
PORT HURON     RAIN      66  63  88 W8G29     29.97R VSB 1
TRI CITIES     MOSUNNY   76  58  53 W24G36    29.91S
MIDLAND        CLOUDY    70  59  68 W15G23    29.92R
TROY           LGT RAIN  70  64  79 W9G32     30.00R
SAGINAW HB     MOSUNNY   77  55  47 SW17G23   29.90R
$$
MIZ043>046-050>051-056>058-064>065-071>073-077>080-272100-
SOUTHWEST LOWER MICHIGAN

CITY           SKY/WX    TMP DP  RH WIND       PRES   REMARKS
BATTLE CREEK   CLOUDY    72  59  63 W13       29.99R
BENTON HARBOR  CLOUDY    65  58  78 W8        30.01R
BIG RAPIDS     CLOUDY    66  55  67 W12G18    29.95R
COLDWATER      LGT RAIN  65  62  90 W6        30.00F
FREMONT        PTSUNNY   65  58  76 W6        29.97R
HOLLAND        PTSUNNY   65  59  81 W15       30.01R
GRAND RAPIDS   PTSUNNY   71  58  63 W20G26    29.98R
IONIA          CLOUDY    71  58  62 W15G25    29.96R
KALAMAZOO      PTSUNNY   74  58  57 W17G25    29.99R
LUDINGTON      CLOUDY    63  55  77 W7        29.97R
MARSHALL       CLOUDY    69  64  85 SW9       29.99R
MOUNT PLEASANT MOSUNNY   72  58  63 SW16G22   29.93S
MUSKEGON       PTSUNNY   64  57  78 VRB3      30.00R
SOUTH HAVEN    CLOUDY    69  59  70 W8        30.00S
$$
MIZ016>042-272100-
NORTHERN LOWER MICHIGAN

CITY           SKY/WX    TMP DP  RH WIND       PRES   REMARKS
ALPENA         LGT RAIN  69  57  65 W14G25    29.86R
BEAVER ISLAND  CLOUDY    55  54  94 W13       29.90R
BELLAIRE       CLOUDY    59  57  91 SW3       29.92S
CADILLAC       CLOUDY    64  57  76 W12       29.94R
CHARLEVOIX     CLOUDY    59  58  95 W15       29.93R
FRANKFORT      CLOUDY    59  53  79 W6        29.95R
GAYLORD        LGT RAIN  59  58  96 W14G24    29.91R FOG
GRAYLING       CLOUDY    61  57  88 W13G18    29.93R
HARBOR SPRINGS LGT RAIN  53  53  97 SW8G16    29.91R
HOUGHTON LAKE  CLOUDY    65  55  70 W18G30    29.92R
MANISTEE       CLOUDY    59  54  82 NW8       29.97R
OSCODA         PTSUNNY   76  60  58 W21G28    29.84R
PELLSTON       CLOUDY    58  55  90 W13G18    29.89R
ROGERS CITY    CLOUDY    66  56  70 W17G26    29.86R
TRAVERSE CITY  PTSUNNY   64  57  78 SW7       29.91S
$$
MIZ007>008-015-272100-
EASTERN UPPER MICHIGAN

CITY           SKY/WX    TMP DP  RH WIND       PRES   REMARKS
KINROSS        CLOUDY    57  57 100 NW17      29.82R
MACKINAC ISLAN CLOUDY    53  53 100 SW17G25   29.86R
NEWBERRY       CLOUDY    60  56  89 W15G21    29.86R
S. S. MARIE    LGT RAIN  46  44  93 W13G20    29.82R
MUNISING         N/A     68  57  68 VRB6      29.86R
$$
MIZ004>006-011>014-085-272100-
CENTRAL UPPER MICHIGAN

CITY           SKY/WX    TMP DP  RH WIND       PRES   REMARKS
MANISTIQUE     CLOUDY    66  59  79 SW8       29.88R
ESCANABA       PTSUNNY   64  55  72 S16G22    29.88R
MENOMINEE      PTSUNNY   72  57  60 W8        29.90S
SAWYER-GWINN   MOSUNNY   68  59  73 SE5       29.87R
$$
MIZ001>003-009>011-084-272100-
WESTERN UPPER MICHIGAN

CITY           SKY/WX    TMP DP  RH WIND       PRES   REMARKS
IRON MOUNTAIN  PTSUNNY   75  57  53 W6        29.86R
HOUGHTON       MOSUNNY   71  55  56 W17       29.85R
COPPER HARBOR    N/A     58  49  72 N13       29.82R
IRONWOOD       SUNNY     77  54  44 W10G18    29.86R
$$

ABBREVIATIONS USED IN REMARKS
   TC - TEMPERATURE IN CELSIUS
  WCI - WIND CHILL INDEX
   HX - HEAT INDEX
  VSB - VISIBILITY




USA.gov is the U.S. government's official web portal to all federal, state and local government web resources and services.